Location: Oberwangen
(47.4286°N, 8.9679°E)
Time: 08:12:33
(UTC+00:00)

Cosmos 1447 Rocket - Pass Details

Date: 25 October 2021
Orbit: 953 x 996 km, 82.9° (Epoch: 27 November)

Event Time Altitude Azimuth Distance (km) Brightness Sun altitude
Rises 19:14:50 0° 342° (NNW) 3,644 7.9 -30.3°
Reaches altitude 10° 19:17:39 10° 331° (NNW) 2,692 7.3 -30.8°
Maximum altitude 19:22:44 28° 275° (W) 1,709 6.3 -31.6°
Drops below altitude 10° 19:27:49 10° 219° (SW) 2,682 7.0 -32.4°
Sets 19:30:38 0° 208° (SSW) 3,628 7.6 -32.9°
